Date,TemperatureHighF,TemperatureAvgF,TemperatureLowF,DewpointHighF,DewpointAvgF,DewpointLowF,HumidityHigh,HumidityAvg,HumidityLow,PressureMaxIn,PressureMinIn,WindSpeedMaxMPH,WindSpeedAvgMPH,GustSpeedMaxMPH,PrecipitationSumIn
2013-1-1,36,30,18,24,15,-12,68,53,17,29.90,29.66,11,4,22,0.01
2013-1-2,29,19,9,17,6,-9,78,59,18,30.07,29.85,7,3,16,0.00
2013-1-3,43,9,3,12,-3,-10,78,58,25,30.09,29.95,6,2,14,0.00
2013-1-4,37,26,10,23,17,7,88,69,53,29.95,29.75,10,3,18,0.01
2013-1-5,40,32,18,23,19,4,83,60,25,30.21,29.78,8,3,16,0.01
2013-1-6,32,24,20,26,20,15,84,82,78,30.18,30.00,7,1,10,0.00
2013-1-7,27,20,18,21,15,13,84,80,77,30.34,30.31,0,0,0,0.01
2013-1-8,43,26,17,26,21,13,91,80,49,30.31,30.22,9,1,16,0.00
2013-1-9,44,34,20,33,26,15,90,74,43,30.35,29.94,10,2,18,0.00
2013-1-10,45,40,28,28,24,-13,78,53,8,30.49,29.96,11,4,25,0.00
2013-1-11,41,33,23,35,27,20,92,78,61,30.47,30.18,5,1,9,0.11
2013-1-12,42,39,36,39,37,35,95,93,91,30.18,30.08,30,1,238,0.82
2013-1-13,50,44,38,47,43,37,95,93,87,30.10,29.94,6,2,9,0.00
2013-1-14,59,49,40,49,39,25,92,71,43,30.21,29.81,9,4,14,0.00
2013-1-15,41,36,30,27,24,22,79,62,50,30.27,30.17,5,1,9,0.00
2013-1-16,33,32,28,32,29,23,94,88,69,30.20,29.78,2,0,4,0.01
2013-1-17,40,33,26,32,25,10,94,74,44,30.05,29.78,8,2,16,0.27
2013-1-18,30,21,15,12,1,-17,69,43,23,30.39,30.01,8,3,18,0.00
2013-1-19,40,31,21,30,18,6,71,58,45,30.32,29.83,14,5,24,0.06
2013-1-20,50,41,38,31,30,14,70,64,28,29.83,29.51,12,5,22,0.00
2013-1-21,39,26,21,21,14,-15,87,64,26,30.01,29.75,7,2,12,0.00
2013-1-22,25,20,12,20,9,-4,89,63,29,30.03,29.72,8,2,20,0.00
2013-1-23,16,11,5,2,-8,-14,62,43,27,30.08,30.01,9,4,21,0.00
2013-1-24,20,10,1,-6,-11,-13,53,39,27,30.16,30.00,10,4,19,0.00
2013-1-25,25,16,8,6,-7,-11,58,36,23,30.25,30.01,8,3,16,0.00
2013-1-26,25,17,11,12,1,-10,83,53,27,30.17,29.96,9,4,18,0.00
2013-1-27,31,20,12,4,0,-4,64,43,24,30.41,30.16,9,3,16,0.00
2013-1-28,32,24,16,25,12,-1,91,63,28,30.39,29.97,6,1,10,0.00
2013-1-29,35,29,24,30,26,22,92,86,73,30.14,29.98,4,1,6,0.00
2013-1-30,60,47,32,55,45,30,97,90,49,30.10,29.41,11,4,19,0.57
2013-1-31,62,51,34,57,41,8,90,70,29,29.42,28.91,17,9,29,0.19
2013-2-1,33,29,22,11,6,-9,49,38,17,30.02,29.69,11,5,19,0.00
2013-2-2,29,27,21,12,10,0,52,48,37,30.03,29.99,6,3,10,0.00
2013-2-3,28,26,23,22,20,9,86,79,50,30.00,29.68,6,2,10,0.00
2013-2-4,31,25,19,20,10,-6,88,57,20,29.87,29.66,14,4,22,0.00
2013-2-5,32,25,20,23,11,0,84,55,27,29.97,29.88,7,2,10,0.00
2013-2-6,28,24,21,24,21,18,89,88,83,29.95,29.88,3,0,5,0.00
2013-2-7,28,26,24,9,2,-2,50,35,29,30.45,30.40,5,1,8,0.02
2013-2-8,28,23,17,26,18,9,93,83,51,30.43,29.61,13,4,23,0.00
2013-2-9,19,17,16,16,15,13,90,90,90,29.62,29.56,14,10,32,0.00
2013-2-12,40,38,29,28,27,17,69,66,60,29.83,29.69,9,4,17,0.28
2013-2-13,43,34,25,27,24,9,85,66,28,29.82,29.66,6,2,13,0.00
2013-2-14,41,33,26,27,23,6,85,67,24,29.93,29.65,7,2,12,0.00
2013-2-15,42,29,23,33,26,18,91,85,39,29.94,29.89,8,1,14,0.00
2013-2-16,38,34,28,30,25,16,92,71,51,29.91,29.69,6,2,12,0.01
2013-2-17,31,22,16,18,10,1,87,61,39,29.69,29.35,12,6,26,0.00
2013-2-18,27,18,14,14,1,-20,55,49,16,29.91,29.62,10,6,24,0.00
2013-2-19,46,42,31,40,32,15,94,71,46,30.01,29.53,8,4,15,0.20
2013-2-20,40,32,26,38,21,12,94,63,41,29.72,29.49,10,5,20,0.00
2013-2-21,32,27,25,16,13,9,65,55,44,30.13,29.72,10,5,20,0.00
2013-2-22,36,26,23,20,17,15,78,70,50,30.33,30.14,6,2,12,0.00
2013-2-24,31,30,30,30,29,28,94,94,94,29.86,29.84,3,2,6,0.42
2013-2-25,40,33,30,32,30,17,94,86,42,30.18,29.86,4,0,7,0.24
2013-2-26,42,33,28,34,29,17,94,85,35,30.28,30.18,7,1,11,0.07
2013-2-27,41,38,36,38,36,26,94,92,79,29.83,29.52,8,4,22,1.17
2013-2-28,47,38,33,44,33,12,94,82,31,29.59,29.48,5,1,9,0.00
2013-3-1,40,37,32,34,29,27,92,74,61,29.64,29.49,6,2,11,0.00
2013-3-2,42,36,30,29,26,24,79,66,57,29.63,29.57,6,2,10,0.00
2013-3-3,35,33,31,29,26,24,83,76,68,29.60,29.57,5,2,9,0.00
2013-3-4,38,34,32,28,23,6,86,64,30,29.70,29.53,9,5,18,0.00
2013-3-5,37,33,30,32,24,7,89,71,33,30.02,29.70,7,3,14,0.00
2013-3-6,39,36,33,34,32,21,91,85,50,30.07,30.00,7,3,15,0.22
2013-3-7,33,32,30,31,29,20,94,88,72,30.02,29.96,10,6,20,0.05
2013-3-8,42,34,29,34,28,20,95,80,44,30.11,29.91,10,5,17,0.13
2013-3-9,48,34,25,28,22,1,92,63,29,30.30,30.10,7,2,12,0.11
2013-3-10,42,30,21,31,26,19,92,85,55,30.35,30.24,6,2,9,0.01
2013-3-11,53,42,34,39,33,11,89,73,25,30.27,30.09,7,4,12,0.00
2013-3-12,56,48,41,52,45,32,94,88,69,30.11,29.68,11,4,20,1.23
2013-3-13,53,43,37,50,36,19,94,78,29,29.72,29.68,9,3,16,0.00
2013-3-15,36,31,28,17,8,-3,44,37,22,29.79,29.71,7,5,12,0.00
2013-3-16,33,32,30,14,12,12,48,44,42,29.83,29.82,2,2,4,0.00
2013-3-17,33,26,19,17,14,-8,81,62,17,29.98,29.82,9,1,17,0.00
2013-3-18,27,25,23,7,4,1,42,39,37,30.39,30.38,3,2,5,0.00
2013-3-20,37,33,27,23,20,4,79,60,38,29.77,29.68,10,3,17,0.00
2013-3-21,37,27,19,22,18,-3,91,71,22,29.77,29.61,6,1,12,0.00
2013-3-23,42,40,36,19,15,-9,44,36,19,29.62,29.58,9,6,22,0.07
2013-3-25,43,39,36,32,30,18,76,70,39,29.66,29.49,7,3,14,0.00
2013-3-26,51,44,37,24,20,2,51,39,27,29.73,29.61,8,3,13,0.00
2013-3-27,53,38,26,32,24,-2,84,58,14,29.83,29.69,8,3,17,0.00
2013-3-28,47,41,36,38,33,21,90,72,45,29.96,29.82,7,2,12,0.03
2013-3-29,57,44,30,35,30,4,91,63,21,29.99,29.91,7,2,13,0.00
2013-3-30,55,42,35,35,28,9,79,60,19,30.02,29.96,7,2,12,0.00
2013-3-31,60,54,44,38,28,15,80,40,21,30.01,29.71,10,6,20,0.02
2013-4-1,56,43,35,42,33,11,94,69,20,29.76,29.48,10,-29,21,0.13
2013-4-2,39,33,28,15,12,-6,52,42,15,29.87,29.71,13,5,23,0.00
2013-4-3,46,35,30,17,12,-10,52,38,15,30.09,29.86,12,5,19,0.00
2013-4-4,57,43,30,23,16,3,57,35,17,30.20,29.98,10,4,18,0.00
2013-4-5,58,44,36,39,25,1,70,48,13,29.99,29.59,10,4,19,0.00
2013-4-6,44,34,30,24,13,-15,57,42,11,30.16,29.81,10,5,21,0.00
2013-4-7,47,46,45,38,37,34,73,69,65,29.97,29.94,7,5,12,0.00
2013-4-8,55,46,37,41,38,22,92,73,29,30.05,29.89,7,3,14,0.00
2013-4-9,68,52,44,55,42,33,89,68,31,30.03,29.81,9,3,16,0.04
2013-4-10,63,50,45,48,44,40,93,80,57,29.99,29.81,7,2,10,0.34
2013-4-11,49,45,42,45,37,24,94,74,42,30.10,29.79,6,2,10,0.07
2013-4-12,42,38,36,38,33,28,100,83,57,30.13,29.75,6,2,12,0.45
2013-4-13,45,37,35,44,37,28,100,99,54,29.89,29.71,6,3,13,0.06
2013-4-14,49,42,37,48,42,37,100,100,87,30.15,29.86,7,2,12,0.00
2013-4-15,56,40,30,56,40,30,100,100,78,30.34,30.15,6,1,10,0.00
2013-4-16,66,49,34,65,49,34,100,98,56,30.35,29.99,12,5,23,0.00
2013-4-17,65,56,47,64,56,41,100,99,61,30.28,30.00,10,4,16,0.00
2013-4-18,61,51,39,61,51,39,100,100,71,30.37,30.09,11,4,19,0.00
2013-4-19,76,62,52,76,62,52,100,100,73,30.10,29.60,13,6,26,0.00
2013-4-20,68,53,44,68,53,44,100,100,100,30.16,29.55,13,5,22,0.94
2013-4-21,52,40,33,52,40,32,100,100,73,30.49,30.16,8,3,16,0.00
2013-4-22,54,46,36,53,46,36,100,99,75,30.68,30.54,10,3,18,0.00
2013-4-23,41,40,35,41,40,35,100,100,100,30.54,30.16,7,2,13,0.03
2013-4-24,74,49,41,74,49,41,100,99,69,30.00,29.74,11,4,17,0.05
2013-4-25,64,52,42,64,52,42,100,100,74,30.22,29.78,9,4,18,0.02
2013-4-26,60,45,35,60,45,35,100,100,100,30.37,30.22,7,1,13,0.00
2013-4-27,63,47,36,63,47,27,100,100,93,30.37,30.23,8,1,11,0.00
2013-4-28,69,50,36,69,50,36,100,99,80,30.29,30.18,8,2,14,0.00
2013-4-29,69,56,43,69,56,43,100,99,62,30.22,30.13,10,3,15,0.00
2013-4-30,68,53,42,68,53,42,100,99,59,30.31,30.19,7,2,11,0.00
2013-5-1,70,51,35,70,51,35,100,100,68,30.41,30.31,8,1,14,0.00
2013-5-2,78,53,39,78,53,39,100,99,70,30.44,30.30,8,2,13,0.00
2013-5-3,62,50,42,61,50,42,100,99,70,30.47,30.33,6,2,13,0.00
2013-5-4,58,45,37,58,45,37,100,100,100,30.33,30.24,6,1,14,0.00
2013-5-5,63,51,35,63,51,35,100,100,75,30.29,30.19,8,2,12,0.00
2013-5-6,71,51,34,71,50,34,100,100,67,30.24,30.09,7,2,14,0.00
2013-5-7,78,61,41,78,61,41,100,100,68,30.12,30.04,8,2,13,0.01
2013-5-8,75,62,51,75,62,51,100,100,100,30.15,30.01,10,3,18,0.00
2013-5-9,68,59,56,68,59,56,100,100,100,30.01,29.85,6,1,8,0.81
2013-5-10,78,61,55,78,61,55,100,100,77,29.92,29.85,4,1,8,0.16
2013-5-11,70,64,59,70,64,57,100,100,86,29.87,29.66,11,4,21,0.09
2013-5-12,71,61,49,71,61,49,100,100,70,29.76,29.51,9,2,16,0.09
2013-5-13,58,48,38,58,48,37,100,99,67,29.98,29.76,10,2,18,0.00
2013-5-14,59,48,39,59,48,39,100,100,85,30.00,29.92,8,2,16,0.00
2013-5-15,84,49,32,84,48,18,100,97,22,30.01,29.63,9,-17,17,0.00
2013-5-16,80,66,46,80,66,45,100,99,66,29.78,29.58,12,4,23,0.00
2013-5-17,68,57,47,64,50,32,100,82,28,30.16,29.77,8,3,17,0.00
2013-5-18,72,54,40,49,42,24,94,68,25,30.26,30.16,8,1,13,0.00
2013-5-19,71,54,49,52,50,42,99,85,41,30.29,30.22,5,1,8,0.00
2013-5-20,81,71,59,64,61,49,99,72,53,30.00,29.86,6,-10,12,0.01
2013-5-21,74,59,50,65,56,49,99,91,60,29.99,29.85,6,2,14,0.00
2013-5-22,66,55,50,60,53,41,99,93,76,30.04,29.82,6,1,13,2.41
2013-5-23,76,63,52,69,60,49,100,90,75,29.90,29.76,11,3,17,0.09
2013-5-24,72,63,49,66,61,48,99,92,76,29.79,29.61,6,3,12,2.19
2013-5-25,51,47,41,50,46,38,99,96,86,29.78,29.67,8,3,15,0.65
2013-5-26,55,47,39,42,39,27,96,74,48,30.04,29.66,9,4,21,0.12
2013-5-27,69,51,36,53,39,14,97,70,13,30.13,30.02,8,2,19,0.00
2013-5-28,74,56,41,51,44,36,96,68,29,30.19,30.11,7,1,11,0.00
2013-5-29,69,61,52,63,58,50,96,90,79,30.14,29.93,5,1,10,3.53
2013-5-30,85,69,61,71,64,43,96,84,25,30.03,29.96,6,2,63,0.01
2013-5-31,93,79,61,67,64,48,96,63,21,30.04,29.89,7,2,14,0.00
2013-6-1,92,78,65,69,64,46,92,65,24,29.93,29.82,9,3,14,0.00
2013-6-2,90,78,70,76,66,47,87,67,36,29.85,29.67,14,5,22,0.01
2013-6-3,78,69,61,69,61,44,94,76,45,29.82,29.71,7,2,12,0.54
2013-6-4,64,57,53,52,42,31,65,58,29,29.89,29.78,6,3,16,0.00
2013-6-5,76,66,59,52,49,41,75,55,34,30.10,30.05,6,2,10,0.00
2013-6-6,75,63,51,62,51,32,93,67,29,30.14,30.06,7,2,13,0.00
2013-6-7,59,55,53,56,53,51,97,93,83,30.08,29.79,6,1,12,2.99
2013-6-8,64,54,52,60,53,52,97,96,83,29.79,29.59,7,4,12,1.08
2013-6-9,63,60,58,57,56,55,90,85,79,30.11,30.08,1,0,0,0.00
2013-6-10,70,61,53,59,56,44,96,83,49,30.16,29.99,5,1,10,0.44
2013-6-11,62,57,55,57,56,54,97,94,83,29.99,29.55,5,2,10,0.86
2013-6-12,67,60,55,58,55,51,98,83,62,29.77,29.52,8,2,17,0.04
2013-6-13,69,58,49,58,54,48,97,85,57,29.77,29.68,5,1,9,0.22
2013-6-14,76,61,52,61,55,40,97,80,46,29.72,29.65,4,1,7,1.08
2013-6-15,78,66,53,54,47,6,94,55,9,29.90,29.72,7,2,13,0.00
2013-6-16,75,65,50,61,54,36,96,69,24,29.89,29.67,8,2,13,0.00
2013-6-17,84,68,56,84,58,36,96,73,29,29.81,29.73,9,2,13,0.00
2013-6-18,74,63,58,70,59,56,96,87,67,29.91,29.88,8,1,12,2.43
2013-6-19,76,62,53,57,52,23,98,72,16,30.10,29.88,6,2,10,0.10
2013-6-20,80,61,48,65,50,19,94,71,24,30.21,30.10,6,-10,10,0.00
2013-6-21,85,70,56,67,56,22,92,66,10,30.20,30.13,6,-41,9,0.00
2013-6-22,84,68,58,64,60,42,96,76,23,30.17,30.10,8,2,14,0.00
2013-6-23,90,82,76,71,68,57,76,63,32,30.00,29.93,9,5,15,0.00
2013-6-24,93,76,70,78,68,62,91,77,41,29.97,29.86,6,3,10,0.01
2013-6-25,91,78,69,76,67,37,92,69,20,29.88,29.67,9,3,19,0.00
2013-6-26,82,72,63,73,68,57,96,87,62,29.83,29.69,5,1,9,0.16
2013-6-27,72,64,60,67,63,59,98,94,83,29.84,29.73,4,1,7,0.68
2013-6-28,82,69,58,72,66,54,98,88,45,29.74,29.45,8,2,19,0.42
2013-6-29,80,73,70,70,69,66,93,86,72,29.69,29.48,7,3,10,0.00
2013-6-30,84,72,66,72,68,60,96,86,47,29.80,29.69,6,2,10,0.00
2013-7-1,81,74,71,75,72,61,96,92,67,30.04,29.95,6,2,9,1.31
2013-7-2,83,73,60,74,70,59,96,90,72,30.17,30.03,6,2,9,0.01
2013-7-3,82,69,60,73,65,59,97,89,71,30.17,30.10,8,2,12,0.00
2013-7-4,92,78,72,75,72,64,95,82,44,30.16,30.06,6,2,13,0.00
2013-7-5,93,82,74,77,72,55,92,72,32,30.11,29.99,8,3,14,0.00
2013-7-6,90,81,74,73,71,49,93,74,23,30.04,29.96,7,2,14,0.00
2013-7-7,91,82,74,78,72,55,92,70,32,29.97,29.87,6,1,11,0.00
2013-7-8,83,74,64,76,70,54,97,85,42,30.04,29.87,6,1,11,0.05
2013-7-9,73,68,64,67,65,63,98,90,80,30.07,30.01,3,1,7,0.00
2013-7-10,78,68,65,74,66,58,97,94,63,30.04,29.76,4,1,7,0.05
2013-7-11,83,76,71,75,72,68,96,87,68,29.90,29.73,6,2,108,0.05
2013-7-12,79,71,65,70,60,45,96,71,32,30.16,29.90,6,2,13,0.00
2013-7-13,81,71,65,70,65,58,95,79,47,30.26,30.16,4,2,8,0.00
2013-7-14,90,77,67,75,70,54,97,80,31,30.26,30.16,5,1,9,0.00
2013-7-15,92,78,68,77,70,54,97,78,30,30.16,30.05,5,1,9,0.00
2013-7-16,92,79,67,86,68,56,94,72,30,30.12,30.06,5,2,10,0.00
2013-7-17,89,76,68,75,69,57,94,80,35,30.13,29.93,5,1,9,0.00
2013-7-18,92,82,73,81,71,38,93,72,15,29.97,29.91,6,2,10,0.00
2013-7-19,96,90,83,77,75,70,78,61,45,29.72,29.67,10,5,19,0.00
2013-7-20,92,83,74,76,71,48,90,68,22,29.77,29.61,10,2,16,0.00
2013-7-21,84,74,65,68,64,47,92,73,35,29.96,29.77,6,1,11,0.00
2013-7-22,84,72,66,70,67,48,97,84,33,29.98,29.91,5,1,10,0.00
2013-7-23,81,73,69,76,72,68,98,94,79,29.69,29.51,5,1,10,4.42
2013-7-24,85,75,64,72,66,52,97,77,37,29.93,29.55,8,2,13,0.01
2013-7-25,64,60,58,58,54,49,96,79,62,30.07,29.93,0,0,0,0.52
2013-7-26,69,63,59,67,62,58,96,94,83,30.03,29.90,6,1,14,0.24
2013-7-28,79,77,70,71,69,57,82,76,47,29.96,29.94,4,2,8,0.01
2013-7-29,83,75,73,72,68,55,88,79,46,29.99,29.93,5,2,8,0.00
2013-7-30,71,65,63,68,62,53,93,89,68,30.06,30.05,0,-999,0,0.00
2013-7-31,82,67,58,62,59,32,96,77,26,30.09,30.00,0,-999,0,0.00
2013-8-1,81,68,59,66,61,-100,96,81,34,30.01,29.84,7,-460,11,0.09
2013-8-2,83,70,63,72,63,47,96,79,36,29.84,29.74,8,2,16,0.71
2013-8-3,79,68,60,68,62,48,96,83,39,29.83,29.73,8,2,12,0.01
2013-8-4,79,66,55,66,58,44,96,77,30,29.85,29.72,8,2,15,0.09
2013-8-5,75,62,52,54,48,21,94,65,18,30.01,29.84,7,-13,16,0.00
2013-8-6,79,61,48,56,51,33,95,73,27,30.10,30.00,5,1,8,0.00
2013-8-7,81,66,53,61,55,28,96,72,21,30.14,30.05,6,2,12,0.00
2013-8-8,77,69,64,70,63,55,90,81,68,30.09,29.97,6,3,11,0.00
2013-8-9,74,72,71,72,70,68,97,92,88,29.98,29.70,78,12,85,0.80
2013-8-10,83,73,64,70,62,38,97,71,21,29.97,29.75,79,25,89,4.88
2013-8-11,79,64,52,62,55,30,95,75,17,30.04,29.95,6,1,10,0.00
2013-8-12,82,66,56,65,58,38,97,77,24,29.99,29.88,5,1,10,0.00
2013-8-13,76,67,62,68,64,60,96,88,66,29.89,29.65,4,1,7,0.03
2013-8-14,71,64,59,62,55,40,97,72,35,29.92,29.63,8,2,16,0.01
2013-8-15,73,58,49,62,51,36,96,79,38,30.06,29.92,6,1,13,0.00
2013-8-16,78,64,50,64,54,29,96,73,20,30.15,30.06,8,1,14,0.00
2013-8-17,79,62,53,62,56,44,96,82,35,30.24,30.14,4,1,8,0.01
2013-8-18,77,71,63,64,62,60,88,72,54,30.13,30.04,4,1,7,0.00
2013-8-19,76,64,56,65,59,46,97,85,40,30.04,29.93,4,1,8,0.00
2013-8-20,82,68,59,69,62,52,95,84,45,30.05,29.93,4,1,7,0.00
2013-8-21,84,67,59,67,61,48,96,84,31,30.10,30.05,4,0,7,0.00
2013-8-22,77,73,72,74,70,69,90,89,88,29.79,29.78,5,3,9,0.00
2013-8-23,79,70,62,69,59,28,93,69,20,30.09,29.78,7,2,12,0.00
2013-8-24,79,63,51,62,48,17,94,64,11,30.28,30.09,5,1,9,0.00
2013-8-25,82,62,49,59,51,29,95,73,16,30.31,30.13,6,1,10,0.00
2013-8-26,79,73,66,67,64,44,86,73,40,30.13,29.82,7,2,13,0.00
2013-8-27,86,74,65,74,66,50,95,79,40,29.87,29.79,5,-29,9,0.00
2013-8-28,85,71,61,69,64,49,96,81,31,29.95,29.82,5,1,11,0.00
2013-8-29,66,64,61,64,61,58,95,90,84,30.04,29.92,7,2,12,0.00
2013-8-30,84,69,59,68,62,48,96,81,36,29.99,29.77,5,2,9,0.00
2013-8-31,82,74,68,74,70,64,96,88,54,29.79,29.74,6,2,11,0.03
2013-9-1,81,74,70,73,70,67,94,89,73,29.85,29.74,7,2,11,0.00
2013-9-2,79,75,70,75,72,69,96,89,80,29.76,29.67,6,1,11,0.30
2013-9-3,81,73,62,72,68,58,97,84,61,29.77,29.65,7,2,11,0.07
2013-9-4,80,64,55,60,57,44,97,77,31,29.88,29.76,7,1,12,0.00
2013-9-5,69,62,50,61,52,26,94,72,19,30.10,29.81,7,2,13,0.06
2013-9-6,61,49,42,45,42,26,96,79,27,30.20,30.10,4,1,8,0.00
2013-9-7,74,66,60,55,50,36,67,56,36,29.97,29.92,6,4,10,0.00
2013-9-9,69,61,53,56,44,29,84,55,33,30.18,30.12,6,2,12,0.00
2013-9-10,74,71,65,70,68,55,94,89,77,30.03,29.97,6,2,12,0.08
2013-9-11,90,75,68,79,70,59,97,86,52,30.02,29.92,14,2,49,0.01
2013-9-12,87,76,66,76,68,57,96,78,39,29.92,29.64,11,3,18,2.89
2013-9-13,79,67,58,69,64,53,97,90,55,29.72,29.53,36,2,168,0.53
2013-9-14,67,60,56,58,53,41,87,79,42,29.87,29.72,6,2,11,0.00
2013-9-15,69,59,53,57,52,42,92,77,36,30.09,30.00,7,1,12,0.01
2013-9-16,66,56,48,55,50,38,96,80,49,30.20,29.96,7,2,14,0.01
2013-9-17,64,48,39,57,40,22,96,76,20,30.36,30.20,6,-4,14,0.00
2013-9-18,74,49,38,49,40,15,97,78,11,30.27,30.11,5,1,8,0.00
2013-9-20,76,64,53,63,54,32,98,72,31,30.04,30.01,3,1,6,0.01
2013-9-21,76,69,60,65,62,49,97,77,53,29.94,29.69,9,5,17,0.01
2013-9-22,71,65,53,66,60,43,95,85,51,29.79,29.56,66,6,86,0.47
2013-9-23,60,51,45,44,41,25,86,70,37,29.95,29.79,8,3,15,0.00
2013-9-24,64,50,41,46,42,12,93,75,15,29.95,29.78,7,-3,15,0.00
2013-9-25,66,52,41,52,46,29,96,81,43,29.95,29.84,6,1,11,0.00
2013-9-26,68,57,52,51,46,23,91,70,26,30.01,29.95,5,2,11,0.00
2013-9-27,67,64,62,55,52,27,74,65,38,30.18,30.15,5,2,8,0.00
2013-9-28,71,60,49,61,49,29,93,71,23,30.28,30.22,5,1,9,0.00
2013-9-29,63,51,48,53,49,29,97,92,29,30.22,30.15,3,0,7,0.02
2013-9-30,69,57,48,56,48,25,98,74,25,30.06,29.95,4,1,6,0.00
2013-10-1,70,57,53,63,54,38,95,88,33,29.92,29.83,4,0,7,0.01
2013-10-2,72,58,48,63,54,40,97,86,40,29.91,29.82,6,1,10,0.00
2013-10-3,74,56,49,59,51,7,96,87,8,30.04,29.91,3,0,6,0.06
2013-10-4,61,56,49,59,54,45,97,93,83,30.05,29.99,2,0,19,0.30
2013-10-5,68,60,54,60,56,43,97,86,64,30.08,30.01,19,1,175,0.00
2013-10-6,59,55,52,56,54,51,97,95,88,30.20,30.07,19,1,42,0.30
2013-10-7,78,65,56,71,61,55,97,89,68,30.09,29.76,79,8,96,0.05
2013-10-8,64,54,43,56,47,27,93,78,28,30.33,29.86,7,-38,12,0.00
2013-10-9,63,49,40,55,42,30,97,80,31,30.42,30.32,6,-88,11,0.00
2013-10-10,61,54,42,53,50,42,99,85,68,30.28,30.14,4,1,8,0.00
2013-10-11,72,54,45,55,46,32,99,79,28,30.14,30.05,5,1,8,0.01
2013-10-12,57,53,46,55,52,45,99,95,89,30.34,30.10,4,2,10,0.01
2013-10-13,62,50,39,52,46,32,100,88,38,30.39,30.33,5,1,9,0.01
2013-10-14,66,48,34,53,42,20,100,84,23,30.35,30.18,6,1,9,0.01
2013-10-15,62,55,49,55,52,48,100,89,73,30.21,30.12,5,1,7,0.00
2013-10-16,60,54,48,56,53,48,100,95,77,30.13,29.87,3,1,6,0.00
2013-10-17,74,59,50,62,54,44,100,85,34,29.87,29.67,7,1,12,0.01
2013-10-18,67,59,48,61,51,26,100,77,26,29.86,29.56,10,3,19,0.07
2013-10-19,66,52,37,47,42,27,100,72,25,29.92,29.70,6,2,10,0.00
2013-10-20,57,53,49,50,45,28,99,75,32,29.78,29.64,8,2,15,0.00
2013-10-21,67,57,45,53,42,20,93,59,20,30.06,29.94,7,2,10,0.00
2013-10-22,64,52,40,52,44,37,98,76,50,29.94,29.65,9,2,14,0.00
2013-10-23,51,44,33,39,35,18,95,73,37,29.75,29.54,4,1,8,0.00
2013-10-24,54,43,32,38,31,7,93,64,21,29.83,29.59,11,2,20,0.00
2013-10-25,47,38,30,35,30,24,95,76,44,30.09,29.83,5,1,12,0.00
2013-10-26,53,39,26,35,30,16,96,72,24,30.09,29.82,10,2,17,0.00
2013-10-27,50,45,42,40,38,25,92,78,48,29.83,29.75,7,2,13,0.03
2013-10-28,58,48,34,42,31,8,93,54,14,30.29,30.03,10,4,18,0.00
2013-10-29,49,34,26,33,25,9,91,71,22,30.39,30.28,6,1,10,0.00
2013-10-30,49,37,30,41,33,27,95,88,50,30.32,30.14,4,0,6,0.05
2013-10-31,61,45,30,58,44,29,97,93,84,30.18,29.75,8,2,12,0.13
2013-11-1,70,64,57,62,59,53,94,82,66,29.79,29.40,17,7,27,0.01
2013-11-2,65,52,43,53,44,15,96,79,15,29.65,29.55,5,1,10,0.00
2013-11-3,50,38,32,45,26,18,84,61,43,30.36,30.06,6,-55,11,0.01
2013-11-4,43,33,25,23,19,-8,88,59,16,30.64,30.36,6,1,11,0.00
2013-11-5,51,33,24,35,27,14,92,80,35,30.65,30.45,6,0,8,0.00
2013-11-6,61,48,35,49,40,24,92,76,31,30.45,29.98,10,3,15,0.00
2013-11-7,64,54,38,57,49,35,93,85,71,29.99,29.61,9,3,17,0.13
2013-11-8,48,39,32,35,27,16,91,62,34,30.03,29.76,9,3,18,0.00
2013-11-9,44,41,35,30,26,20,67,55,42,30.10,29.99,6,2,14,0.00
2013-11-10,52,45,40,43,34,29,79,64,53,29.99,29.68,7,3,17,0.12
2013-11-11,52,44,39,33,28,-4,70,53,12,30.04,29.79,8,3,17,0.00
2013-11-12,48,35,27,39,24,16,93,65,53,30.12,29.83,11,3,20,0.00
2013-11-13,36,28,23,21,15,-5,80,59,24,30.22,30.09,8,2,16,0.00
2013-11-14,51,35,28,27,22,-2,82,60,21,30.09,29.97,8,2,15,0.00
2013-11-15,60,41,26,30,24,6,86,56,12,30.13,30.04,7,1,12,0.00
2013-11-16,60,40,32,37,30,7,90,70,13,30.26,30.12,4,0,8,0.00
2013-11-17,54,43,30,52,40,28,94,88,77,30.27,29.80,6,1,10,0.27
2013-11-18,65,57,48,61,48,14,95,72,28,29.80,29.48,72,7,78,0.98
2013-11-19,49,40,32,38,23,-8,84,51,13,30.17,29.59,9,4,20,0.00
2013-11-20,40,32,22,36,15,-22,89,52,6,30.56,30.40,7,2,15,0.00
2013-11-21,47,31,19,31,21,6,91,70,28,30.58,30.31,7,1,11,0.00
2013-11-22,44,39,0,43,37,26,97,90,71,30.31,29.80,2,0,8,0.21
2013-11-23,44,37,30,32,20,-5,80,51,18,29.84,29.72,9,4,17,0.00
2013-11-24,31,25,20,15,1,-20,62,36,12,30.12,29.72,13,6,28,0.00
2013-11-25,33,24,17,26,4,-20,54,41,14,30.29,30.12,9,3,20,0.00
2013-11-26,38,34,30,34,22,3,97,65,28,30.28,30.00,8,2,12,0.12
2013-11-27,62,50,34,62,49,34,100,97,86,30.00,29.17,75,8,83,1.49
2013-11-28,38,31,23,34,18,-17,88,60,10,30.37,29.40,12,4,23,0.00
2013-11-29,33,25,18,20,12,-3,95,58,21,30.67,30.36,6,2,12,0.00
2013-11-30,34,24,10,24,16,0,95,74,28,30.73,30.36,5,1,9,0.00
2013-12-1,37,34,30,37,32,25,100,93,74,30.36,29.97,5,2,8,0.17
2013-12-2,39,37,36,39,37,36,100,100,100,29.97,29.87,4,1,8,0.01
2013-12-3,44,36,32,38,34,25,100,93,47,29.90,29.80,6,-9,9,0.00
2013-12-4,42,33,26,32,28,15,100,83,39,30.15,29.90,6,1,54,0.00
2013-12-5,43,38,27,42,37,27,100,97,87,30.16,29.86,3,1,5,0.00
2013-12-6,53,45,33,53,43,33,100,91,61,30.11,29.80,6,2,10,0.26
2013-12-7,37,32,24,35,29,18,100,87,50,30.39,30.03,6,2,12,0.16
2013-12-8,31,27,19,25,20,16,100,78,59,30.53,30.39,4,1,6,0.00
2013-12-9,36,31,25,36,29,16,100,95,61,30.45,29.84,3,1,5,0.00
2013-12-10,34,31,25,33,29,14,100,91,58,29.95,29.73,7,2,14,0.00
2013-12-11,33,26,21,21,18,2,87,72,36,30.14,29.94,10,4,19,0.00
2013-12-12,25,17,10,18,6,-16,87,64,16,30.22,30.01,8,2,16,0.00
2013-12-13,30,20,9,23,11,-14,89,68,17,30.35,29.94,10,4,16,0.00
2013-12-14,19,14,8,18,5,-11,98,70,37,30.57,30.12,5,3,9,0.00
2013-12-15,33,25,18,33,25,17,100,100,94,30.13,29.40,8,1,14,0.00
2013-12-16,24,20,14,24,20,7,100,99,49,30.16,29.69,0,0,0,0.00
2013-12-17,20,11,-1,20,11,-2,100,99,93,30.25,29.91,0,0,0,0.00
2013-12-18,31,23,16,31,22,7,100,98,40,30.03,29.83,6,1,12,0.25
2013-12-19,35,28,24,34,28,18,100,99,57,30.05,29.91,10,5,19,0.01
2013-12-20,49,42,38,35,34,27,84,72,56,29.91,29.85,5,1,8,0.52
2013-12-21,58,50,41,47,43,31,91,76,56,29.90,29.80,7,2,11,0.01
2013-12-22,49,38,32,47,38,32,100,99,91,29.97,29.75,9,2,12,0.04
2013-12-23,36,33,32,36,33,32,100,100,100,30.05,29.92,4,1,6,0.53
2013-12-24,36,32,26,36,24,5,100,76,31,30.14,30.01,6,1,43,0.00
2013-12-25,28,18,12,16,7,-27,90,63,11,30.49,30.14,8,2,18,0.00
2013-12-26,33,23,14,32,21,12,100,92,76,30.45,30.04,4,1,6,0.00
2013-12-27,33,25,14,24,20,9,100,84,54,30.22,30.14,8,2,13,0.00
2013-12-28,46,29,18,29,24,16,100,85,31,30.16,29.93,9,2,16,0.02
2013-12-29,41,34,25,38,32,25,100,94,67,29.98,29.39,9,2,15,1.16
2013-12-30,41,32,16,36,25,5,100,78,34,30.13,29.48,10,3,21,0.01
2013-12-31,26,18,12,16,5,-20,89,60,19,30.13,29.98,5,2,9,0.00
2014-1-1,27,20,12,15,10,4,86,66,40,30.33,30.12,7,2,15,0.00
2014-1-2,21,10,0,18,9,-2,96,92,79,30.31,29.86,9,4,18,0.00